Location: Borgo
(42.3939°N, 9.2791°E)
Time: 02:52:40
(UTC+00:00)

Gbstr 26 Del rocket - Pass Details

Date: 27 February 2020
Orbit: 493 x 1264 km, 51.8° (Epoch: 03 April)

Event Time Altitude Azimuth Distance (km) Brightness Sun altitude
Rises 18:54:03 0° 263° (W) 2,661 7.7 -20.0°
Reaches altitude 10° 18:56:14 10° 272° (W) 1,836 6.7 -20.4°
Maximum altitude 19:00:06 38° 341° (NNW) 950 4.2 -21.2°
Enters shadow 19:02:08 25° 30° (NNE) 1,312 4.5 -21.5°
